Wind_Speed
39 37 32 31 32 32 31 29 26 22 21 19 18 16 15 15 15 16 15 13 13 14 14 15 14 12 11 12 13 12 10 9 10 10 10 10 11 11 10 10 10 11 11
43 42 40 35 33 36 35 33 31 28 27 26 24 23 20 18 17 19 19 17 16 16 17 17 17 16 15 14 13 15 15 13 13 12 12 12 13 14 13 12 12 13 14
43 44 40 40 41 38 39 38 36 35 33 31 31 29 29 29 27 23 23 25 22 21 20 20 20 20 20 18 16 14 16 17 16 16 15 15 16 16 15 15 16 16 16
47 47 49 48 46 43 43 43 41 40 37 36 36 34 34 35 34 31 30 28 29 27 24 24 23 23 23 23 22 20 18 18 20 21 19 19 20 19 19 18 18 18 18
50 51 51 50 47 47 47 44 42 43 43 43 42 40 40 40 40 37 36 34 33 32 29 27 26 26 25 25 25 25 23 20 20 21 23 24 23 22 23 23 22 20 20
40 41 42 42 41 43 49 49 47 47 46 47 48 48 46 44 43 41 40 40 37 35 34 32 30 30 28 28 28 28 28 25 23 25 24 26 26 26 27 27 27 27 27
34 31 31 32 35 35 40 45 47 49 52 53 52 52 51 49 45 44 43 41 40 39 38 36 35 34 34 33 33 32 31 30 29 29 28 28 28 29 29 30 31 32 32
36 35 34 32 31 34 32 38 41 41 45 48 51 54 54 51 47 45 44 43 43 43 40 39 38 38 38 38 37 36 36 35 34 35 34 33 32 32 33 35 35 35 36
38 36 34 33 33 35 35 35 36 36 34 37 43 47 51 49 50 48 44 43 44 45 47 43 43 44 42 41 41 40 39 40 39 38 38 39 38 37 37 39 39 38 38
41 40 40 38 37 36 36 35 34 34 33 32 33 38 45 44 43 45 44 46 46 46 47 48 48 46 45 46 45 44 44 44 43 43 43 42 42 42 43 42 41 41 41
46 45 45 45 44 42 40 38 37 36 36 35 35 34 36 42 44 43 45 47 48 49 51 52 51 49 50 49 49 49 48 47 46 45 47 47 47 46 47 47 48 49 50
51 50 50 50 50 49 48 46 44 40 39 39 38 38 39 37 38 43 45 44 46 47 48 49 47 48 48 50 51 53 52 51 51 50 51 51 51 52 52 52 55 55 56
59 56 56 56 56 55 54 54 51 48 45 44 44 44 44 42 40 39 42 43 45 47 49 50 51 50 48 46 46 48 50 51 52 53 55 57 59 59 59 58 58 57 56
65 65 65 63 62 61 59 59 60 57 54 52 49 49 48 49 47 44 42 43 42 42 45 49 54 53 52 47 45 44 46 46 47 46 46 46 46 46 48 50 51 50 50
73 73 72 71 68 66 65 63 63 64 64 64 60 55 51 51 52 51 48 47 45 44 45 46 45 46 48 50 50 47 45 45 45 44 43 44 45 44 43 42 41 41 41
78 78 76 76 75 72 71 70 69 69 70 69 71 70 66 60 55 54 56 54 52 50 51 50 48 46 48 49 49 51 49 49 48 49 49 47 45 43 41 39 39 38 36
84 83 81 82 82 82 82 81 80 78 76 77 77 76 76 75 71 63 62 61 60 56 55 55 55 53 51 50 54 55 56 55 53 52 51 46 46 42 42 43 40 39 39
86 85 86 86 86 88 90 90 88 88 87 85 84 83 83 82 81 76 66 62 61 59 58 58 61 61 58 56 56 56 55 53 52 50 50 49 48 47 47 49 46 47 48
91 93 94 95 95 94 93 93 93 92 91 91 91 90 90 89 87 85 84 80 76 71 71 68 64 64 62 65 64 64 61 55 56 56 56 52 53 53 54 54 53 53 50
97 97 97 98 99 99 100 99 100 101 101 98 95 94 93 93 93 92 90 89 85 78 79 80 77 71 66 68 70 70 66 65 64 60 60 58 58 58 57 58 56 56 53
88 90 93 95 99 103 106 108 108 107 107 110 110 106 100 96 95 96 95 94 93 90 89 86 83 82 78 77 75 73 74 71 67 69 69 66 65 63 60 59 57 55 55
82 84 86 86 88 93 96 98 100 100 100 100 103 104 106 105 100 98 99 97 95 93 94 92 89 87 85 86 85 84 78 73 70 70 72 70 69 68 65 62 60 58 59
87 87 87 89 91 91 92 95 97 100 100 100 100 101 101 103 105 104 101 101 100 96 94 94 91 94 90 92 93 90 88 85 81 77 77 74 74 70 66 67 65 65 64
90 89 91 91 93 92 93 92 95 99 102 103 103 103 101 101 104 106 106 106 107 107 103 99 98 91 92 102 98 97 94 90 89 87 84 81 80 79 76 76 72 72 73
82 83 81 80 81 82 86 87 88 89 93 97 100 100 99 101 103 106 105 104 104 104 105 104 104 103 104 104 102 102 99 96 95 92 91 90 88 90 88 88 84 83 80
72 72 73 73 75 76 76 76 77 80 82 85 89 93 95 96 100 101 100 100 101 101 101 101 102 104 105 106 103 104 103 102 99 96 100 97 95 94 95 99 92 89 86
Wind_Direction
257 258 257 258 261 262 258 258 256 251 248 248 249 252 256 261 269 273 278 285 288 288 291 298 299 303 310 312 316 316 312 315 309 305 312 321 322 327 328 327 320 313 300
258 258 254 258 262 260 257 257 257 256 255 259 260 261 258 258 266 269 269 273 281 281 282 287 293 296 296 302 302 303 309 311 306 308 316 327 327 326 324 313 312 308 301
257 255 254 256 258 261 256 257 257 257 258 259 259 263 262 263 266 263 264 268 268 274 278 280 280 286 290 292 293 296 296 299 303 305 305 309 311 316 324 322 322 321 309
258 255 258 258 255 255 255 255 256 258 259 263 260 259 262 265 265 262 262 265 265 266 266 269 272 275 281 287 286 287 291 292 294 295 299 300 302 308 310 310 312 314 315
256 254 255 257 255 250 249 253 256 256 262 265 264 259 262 264 261 262 262 264 262 260 257 261 266 269 274 276 282 283 282 285 285 285 287 289 293 297 300 302 301 304 307
257 253 253 254 256 255 250 252 256 259 262 263 262 262 262 261 259 256 258 261 258 254 253 256 258 261 266 269 272 276 278 279 281 279 281 284 287 289 292 292 295 297 297
255 252 251 253 256 258 252 254 256 258 261 263 262 261 264 262 261 259 256 257 256 251 252 256 257 258 259 262 266 270 273 272 274 277 279 278 280 282 285 287 290 292 294
259 257 255 255 251 254 253 252 256 260 261 261 261 260 261 263 264 261 258 258 256 254 254 257 256 258 260 263 264 266 269 270 270 271 274 275 277 280 283 285 286 289 287
261 260 260 259 256 253 258 253 257 261 265 264 260 260 261 262 265 264 261 258 260 260 256 256 260 262 264 265 265 267 269 269 271 272 272 273 274 279 279 281 285 290 289
263 263 264 263 264 264 262 264 262 263 264 267 270 263 262 263 264 262 262 260 259 260 261 263 263 265 267 269 269 269 271 271 267 271 273 275 274 278 279 280 280 281 281
258 260 263 266 268 269 267 268 270 271 273 272 269 269 269 266 264 264 262 260 261 263 264 263 265 266 268 270 270 270 272 272 272 268 268 270 271 272 273 275 277 278 279
258 258 260 264 267 269 269 268 269 267 272 274 276 275 272 271 269 264 264 262 260 262 263 263 263 264 267 269 271 271 271 271 271 273 274 274 274 275 276 277 279 279 281
260 260 260 261 264 266 268 268 267 268 267 267 270 274 278 277 273 270 266 264 264 263 262 261 261 263 264 266 267 266 266 267 270 272 274 276 276 278 278 278 279 279 280
258 260 259 259 260 262 265 268 271 270 269 266 267 270 273 274 275 273 268 266 265 265 262 261 262 263 264 260 259 262 264 267 269 271 272 275 278 279 279 278 278 279 280
256 258 261 260 261 263 264 267 270 272 274 274 271 267 265 267 269 271 270 267 262 258 261 265 265 264 263 260 260 261 264 268 269 271 273 276 279 282 284 281 279 282 285
258 259 260 262 264 263 265 266 266 267 269 271 274 274 272 267 263 265 267 266 265 260 258 260 262 260 256 256 257 262 266 268 269 274 278 278 280 282 283 283 283 283 286
259 260 261 261 261 261 262 263 264 263 265 266 267 268 271 272 269 264 264 265 262 260 260 261 258 258 259 258 260 263 265 269 271 272 275 275 280 280 283 282 283 282 281
261 263 264 264 264 263 264 264 262 262 264 265 263 265 264 265 268 267 261 259 259 259 256 258 262 259 256 257 260 263 265 265 268 270 273 273 273 274 276 276 275 275 278
260 261 262 264 265 264 264 265 266 265 263 261 261 262 263 263 261 262 265 264 264 264 265 261 259 258 258 259 259 261 263 265 264 266 266 267 269 269 269 272 275 275 275
261 261 262 263 264 265 265 265 266 267 267 265 263 262 261 260 260 259 259 261 262 261 262 265 265 260 259 265 265 263 261 262 262 263 266 268 269 271 271 273 271 274 276
261 262 263 265 266 266 266 266 266 267 267 267 267 265 263 259 258 259 257 256 257 260 261 262 264 265 265 264 264 265 263 261 262 264 264 265 269 271 271 270 272 275 276
266 264 263 263 264 265 264 264 265 265 264 264 264 264 264 261 258 256 257 256 255 254 258 261 264 264 265 267 265 264 265 266 267 263 265 265 265 266 269 268 268 272 276
269 266 266 266 266 265 265 265 266 267 266 265 264 263 263 263 262 259 256 257 256 255 256 258 261 264 266 264 265 265 266 264 265 267 269 270 266 266 265 266 268 268 273
268 268 270 272 274 273 271 270 267 264 263 263 262 262 260 260 260 260 259 256 255 256 256 255 255 254 247 259 262 265 265 266 266 265 264 266 268 269 268 268 268 269 272
276 275 273 273 273 272 271 270 268 266 264 263 263 263 262 261 260 259 259 257 256 256 256 255 254 252 253 255 257 261 263 264 266 266 266 265 266 267 267 269 270 272 271
275 276 275 273 273 273 273 272 270 268 265 263 262 262 261 260 259 259 258 257 257 255 254 254 254 251 251 254 256 256 259 262 262 266 269 268 268 268 269 270 271 271 270
Height
10884 10886 10888 10889 10890 10891 10891 10892 10894 10896 10896 10897 10898 10898 10898 10899 10900 10901 10901 10902 10902 10902 10902 10902 10902 10902 10902 10902 10901 10901 10900 10900 10898 10898 10897 10896 10895 10894 10893 10892 10891 10890 10889
10879 10880 10883 10885 10885 10886 10886 10886 10888 10890 10892 10893 10894 10895 10895 10896 10897 10898 10899 10900 10900 10900 10899 10899 10899 10899 10900 10899 10899 10898 10897 10897 10896 10896 10896 10895 10893 10892 10892 10890 10888 10887 10886
10873 10875 10876 10878 10880 10882 10882 10882 10883 10884 10886 10887 10889 10890 10891 10891 10893 10894 10895 10896 10897 10897 10897 10897 10896 10896 10896 10896 10896 10895 10894 10894 10893 10893 10893 10892 10891 10890 10890 10888 10887 10885 10884
10867 10869 10870 10872 10873 10876 10876 10876 10878 10879 10880 10881 10883 10884 10886 10886 10887 10889 10890 10891 10892 10893 10893 10893 10893 10892 10892 10892 10891 10891 10891 10891 10890 10889 10889 10888 10887 10887 10886 10886 10884 10882 10881
10857 10860 10862 10864 10866 10868 10870 10870 10872 10873 10873 10874 10876 10877 10879 10880 10881 10883 10884 10885 10886 10887 10887 10888 10888 10887 10887 10887 10886 10886 10886 10886 10886 10885 10885 10883 10883 10883 10882 10881 10880 10879 10877
10850 10853 10855 10857 10858 10860 10861 10864 10866 10867 10868 10867 10868 10868 10871 10872 10874 10876 10877 10879 10880 10880 10880 10881 10882 10882 10882 10882 10881 10881 10881 10882 10882 10880 10880 10879 10878 10877 10876 10875 10874 10874 10873
10844 10848 10850 10851 10852 10852 10855 10857 10859 10860 10860 10859 10860 10860 10862 10864 10867 10869 10871 10872 10873 10873 10873 10874 10875 10875 10876 10876 10876 10875 10875 10876 10877 10874 10875 10874 10873 10872 10870 10869 10869 10868 10867
10840 10843 10845 10847 10848 10848 10849 10851 10852 10852 10852 10852 10852 10852 10853 10856 10859 10862 10864 10865 10866 10866 10866 10866 10868 10868 10869 10870 10870 10870 10869 10870 10870 10869 10869 10868 10867 10866 10865 10864 10863 10862 10860
10834 10836 10838 10841 10842 10843 10843 10845 10845 10845 10845 10845 10845 10844 10846 10848 10851 10854 10856 10857 10858 10859 10859 10859 10860 10861 10862 10862 10863 10863 10863 10862 10863 10863 10863 10862 10861 10860 10859 10858 10858 10856 10854
10830 10831 10832 10834 10835 10837 10838 10839 10840 10839 10840 10839 10839 10839 10839 10841 10843 10845 10846 10848 10849 10849 10850 10851 10853 10854 10854 10855 10855 10855 10855 10855 10856 10856 10855 10855 10854 10853 10852 10851 10851 10849 10847
10823 10825 10826 10827 10829 10830 10831 10832 10833 10833 10833 10833 10834 10834 10834 10834 10836 10836 10838 10838 10838 10840 10839 10841 10844 10845 10846 10846 10846 10846 10845 10846 10846 10848 10846 10847 10846 10845 10844 10843 10842 10841 10839
10815 10817 10818 10819 10821 10822 10824 10824 10825 10827 10827 10827 10827 10827 10828 10828 10829 10829 10829 10830 10830 10830 10830 10831 10834 10835 10836 10836 10836 10836 10835 10836 10835 10838 10837 10837 10837 10836 10835 10834 10832 10831 10830
10805 10807 10809 10810 10811 10811 10812 10814 10816 10817 10819 10820 10820 10820 10821 10822 10822 10822 10822 10821 10822 10822 10822 10822 10824 10826 10827 10827 10826 10825 10825 10825 10826 10826 10827 10826 10826 10825 10824 10822 10821 10820 10819
10792 10793 10795 10797 10798 10800 10801 10802 10802 10805 10808 10810 10812 10813 10813 10813 10814 10815 10816 10815 10814 10813 10813 10814 10815 10817 10817 10816 10816 10815 10815 10815 10816 10817 10816 10815 10815 10814 10812 10811 10810 10809 10809
10775 10778 10780 10783 10786 10790 10791 10792 10793 10793 10793 10795 10800 10803 10804 10804 10805 10806 10806 10808 10807 10806 10806 10806 10807 10808 10808 10807 10807 10807 10807 10808 10807 10807 10808 10806 10806 10805 10803 10802 10801 10800 10800
10762 10765 10769 10771 10775 10778 10779 10781 10782 10783 10783 10784 10783 10784 10790 10794 10795 10794 10794 10796 10798 10798 10798 10798 10798 10799 10799 10799 10799 10799 10799 10798 10799 10798 10798 10798 10796 10796 10794 10794 10793 10793 10792
10749 10751 10754 10756 10758 10760 10763 10765 10767 10768 10770 10771 10772 10773 10773 10774 10780 10784 10782 10783 10783 10786 10787 10787 10787 10788 10788 10789 10788 10789 10790 10790 10790 10790 10788 10788 10788 10787 10786 10786 10785 10785 10785
10736 10738 10737 10740 10742 10742 10742 10745 10748 10750 10753 10755 10755 10756 10758 10760 10760 10762 10769 10769 10768 10772 10776 10776 10774 10776 10776 10778 10777 10777 10778 10780 10780 10779 10778 10776 10777 10778 10778 10776 10777 10776 10777
10723 10723 10723 10720 10721 10723 10724 10724 10725 10728 10733 10735 10737 10738 10738 10740 10744 10746 10747 10751 10752 10756 10760 10761 10762 10763 10764 10763 10765 10767 10767 10768 10767 10768 10768 10767 10766 10766 10767 10766 10767 10766 10766
10702 10705 10704 10702 10701 10701 10703 10706 10706 10706 10707 10710 10714 10717 10720 10720 10722 10726 10730 10731 10734 10738 10741 10742 10744 10749 10752 10751 10750 10752 10755 10755 10755 10755 10753 10755 10754 10754 10754 10754 10755 10754 10754
10684 10683 10683 10683 10681 10681 10681 10683 10685 10686 10685 10684 10686 10690 10694 10700 10701 10702 10706 10712 10715 10717 10720 10724 10729 10731 10734 10735 10734 10737 10738 10741 10744 10742 10741 10741 10740 10740 10741 10739 10740 10741 10741
10666 10666 10665 10665 10663 10659 10657 10655 10655 10659 10660 10660 10659 10662 10664 10668 10676 10681 10682 10687 10693 10699 10702 10707 10710 10715 10717 10717 10717 10720 10722 10725 10731 10727 10726 10729 10728 10727 10728 10725 10726 10727 10728
10644 10642 10642 10641 10638 10640 10641 10639 10637 10634 10635 10635 10635 10637 10640 10641 10645 10654 10663 10665 10669 10677 10686 10690 10698 10700 10704 10699 10698 10700 10703 10711 10708 10710 10711 10713 10712 10714 10714 10712 10712 10713 10713
10621 10622 10621 10621 10618 10617 10615 10615 10611 10608 10607 10606 10606 10607 10614 10617 10617 10618 10628 10638 10644 10650 10662 10671 10676 10691 10677 10681 10679 10681 10683 10688 10690 10693 10696 10694 10695 10696 10698 10699 10700 10698 10699
10602 10600 10599 10598 10595 10593 10588 10587 10586 10586 10582 10579 10579 10581 10587 10589 10589 10589 10595 10605 10614 10622 10630 10641 10651 10659 10661 10660 10663 10662 10664 10667 10668 10673 10676 10675 10678 10678 10680 10681 10684 10684 10683
10583 10582 10579 10577 10574 10572 10569 10566 10562 10558 10555 10552 10552 10554 10557 10560 10559 10561 10568 10577 10586 10593 10601 10609 10618 10627 10633 10637 10642 10644 10647 10648 10652 10652 10650 10653 10656 10659 10659 10655 10663 10665 10666